Simultaneous Nadir Overpasses (SNOs) Predictions

Prediction of SNOs between NPP and TERRA Satellite Orbit:

Table of predicted SNOs for the next 14.0 days since TLE Epoch: 11/19/2024
Index Date (NPP) Time (NPP) Lat,Lon (NPP) SZA (NPP ) Date (TERRA) Time (TERRA) Lat,Lon (TERRA) SZA (TERRA ) Distance(km) Time Diff (sec)
1 11/21/2024 11:37:06 -72.98, 176.99 86.98 11/21/2024 11:38:18 -72.99, 176.98 86.98 0.85 72
2 11/21/2024 12:27:51 72.91, -15.57 92.97 11/21/2024 12:27:39 72.92, -15.48 92.97 2.82 12
3 11/21/2024 13:18:20 -72.18, 153.24 87.80 11/21/2024 13:17:13 -72.20, 150.88 87.71 80.43 67
4 11/23/2024 22:49:28 -72.98, 8.88 86.45 11/23/2024 22:50:30 -72.97, 8.85 86.48 1.91 62
5 11/23/2024 23:40:12 72.87, 176.43 93.44 11/23/2024 23:39:51 72.90, 176.39 93.47 3.21 21
6 11/26/2024
